Content
SEND FEEDBACK

Daily
Averages
Monthly
Summary
United States of America

MALDEN, MISSOURI


Home > North America > United States > Missouri
Elevation: 295 feet     Latitude: 36 36N     Longitude: 089 59W

WEATHER
 
SELECT A DAY
Number of Records: 211,124;   Date Range: 1/1/95 - 10/29/14
 
SHARE

PRINT THIS DATA

[ ← Previous Day ]
WEATHER ALMANAC - SEPTEMBER 2, 2014
[ Next Day → ]
[ °C ]   °F
Weather ElementAverageHighLow
Temperature76.5 °F82.9 °F (2:53 pm)69.1 °F (10:53 pm)
Dewpoint67.2 °F71.1 °F (3:53 am)63 °F (3:53 pm)
Humidity74.1 %90 % (10:53 pm)52 % (3:53 pm)
Barometer29.95 in30.00 in (10:53 pm)29.91 in (2:53 am)
Wind Speed5.8 mph10.4 mph (6:53 am)
Weather ElementAverage
Visibility10 mi
Wind DirectionS (178.2 °)

Weather ElementTotal
Precipitation0.02 in
Cooling Degree Days11 (Base 65)
Growing Degree Days26 (Base 50)
Averaged from 22 records on September 2, 2014
WEATHER CONDITIONS BREAKOUT
WIND DIRECTION BREAKOUT
WEATHER BY HOUR - SEPTEMBER 2, 2014
[ °C ]   °F
Local TimeTemperatureDewpointHumidityBarometerVisibilityWind DirectionWind SpeedGust SpeedPrecipitationEventsConditions
1:53 AM75.9 °F70.0 °F82 %29.94 in10.0 miSSW (210°)6.9 mphClear
2:53 AM75.9 °F70.0 °F82 %29.91 in10.0 miSouth (180°)8.1 mphClear
3:53 AM75.9 °F71.1 °F85 %29.92 in10.0 miSSW (200°)6.9 mphClear
4:53 AM75.0 °F71.1 °F87 %29.92 in10.0 miSouth (190°)5.8 mphClear
5:53 AM75.0 °F71.1 °F87 %29.93 in10.0 miSW (220°)6.9 mphClear
6:53 AM75.0 °F71.1 °F87 %29.96 in10.0 miSW (230°)10.4 mphPartly Cloudy
7:53 AM75.9 °F70.0 °F82 %29.97 in10.0 miSW (230°)9.2 mph0.00 inPartly Cloudy
8:53 AM73.0 °F68.0 °F84 %29.95 in10.0 miSW (220°)8.1 mph0.00 inRainLight Rain
9:53 AM73.0 °F66.0 °F79 %29.96 in10.0 miWest (280°)9.2 mph0.02 inMostly Cloudy
10:53 AM75.9 °F66.0 °F71 %29.95 in10.0 miSW (230°)8.1 mph0.00 inPartly Cloudy
11:53 AM75.9 °F66.9 °F74 %29.95 in10.0 miSSW (210°)8.1 mphPartly Cloudy
12:53 PM80.1 °F64.9 °F60 %29.99 in10.0 miWest (260°)8.1 mphClear
1:53 PM82.0 °F64.9 °F56 %29.98 in10.0 miWest (260°)9.2 mphClear
2:53 PM82.9 °F64.9 °F54 %29.94 in10.0 miNW (320°)5.8 mphClear
3:53 PM82.0 °F63.0 °F52 %29.91 in10.0 miNorth (10°)3.5 mphClear
4:53 PM82.9 °F64.9 °F54 %29.91 in10.0 miVariable5.8 mphClear
5:53 PM82.0 °F64.0 °F54 %29.93 in10.0 miNW (310°)4.6 mphClear
6:53 PM81.0 °F64.0 °F56 %29.94 in10.0 miCalmClear
7:53 PM73.0 °F68.0 °F84 %29.95 in10.0 miCalmClear
8:53 PM72.0 °F66.9 °F84 %29.96 in10.0 miNorth (360°)3.5 mphClear
10:53 PM69.1 °F66.0 °F90 %30.00 in10.0 miCalmClear
11:53 PM69.1 °F64.9 °F87 %30.00 in10.0 miCalmClear
Hourly data recorded from KPOF, located miles away from Malden, Missouri







STORIES FROM OUR PARTNERS